278P/McNaught (2020)

Japanese version
Home page
Updated on July 27, 2020

---------------------------------------------------------------------

* Profile

* Pictures

* Orbital Elements

Epoch 2020 Sept. 28.0 TT = JDT 2459120.5
T 2020 Sept. 12.05984 TT                                Rudenko
q   2.0870218            (2000.0)            P               Q
n   0.13883591     Peri.  238.08613     -0.28499602     +0.95802709
a   3.6937557      Node    15.44712     -0.83544132     -0.23241096
e   0.4349865      Incl.    6.68498     -0.46990964     -0.16783693
P   7.10
From 213 observations 2006 May 22-2020 Apr. 10, mean residual 0".6.

* Magnitudes Graph

        m1 = 6.0 + 5 log d + 30.0 log r

---------------------------------------------------------------------

The orbital elements are published on M.P.E.C. 2020-G91.
The magnitudes graphs are made with Comet for Windows.

---------------------------------------------------------------------

Copyright(C) Seiichi Yoshida (comet@aerith.net). All rights reserved.